COSMOS 2251 DEB, 33908

Orbit data source: Space-Track

COSMOS 2251 DEB, 33908 is space debris in LEO originally from a launch on Wed, 16 Jun 1993 UTC launched from the Plesetsk Missile And Space Complex (PKMTR). The debris from Iridium 33, an American commercial communications satellite, has been tracked extensively since its accidental collision with the defunct Russian satellite Cosmos 2251 in 2009. This event, occurring at high speed in low Earth orbit (LEO), generated thousands of pieces of space debris, significantly increasing the risk of further collisions. The Iridium 33 debris cloud has impacted space traffic management and orbital debris mitigation strategies, making it a subject of ongoing study in space situational awareness.

Loading next visibility...
Identifier
33908, 1993-036DM
Orbit
LEO
Country
Flag of CISCIS
Related business
Manufacturer
Unknown
Mission
Spacecraft
Bus & Motor
Unknown
Mass
Unknown
Launch date (UTC)
1993-06-16 (33 years ago)
Launch vehicle
Unknown
Launch site
Plesetsk Missile And Space Complex (PKMTR)
Object type
Payload
Rocket body
Debris
Shape & HBR
Unknown shape, 0.1 m
Radar Cross Section
Small (<0.1 m²)

Expand to show TLE details & history
Last TLE update: 9 hours ago

TLE from 9 hours ago
0 COSMOS 2251 DEB
1 33908U 93036DM  26123.25498857  .00001946  00000-0  92628-3 0  9996
2 33908  73.8371 314.3818 0216168 313.1999  45.1253 14.08579073874655
Epoch: 2026-05-03T06:07Z
TLE epoch observation values (Epoch: 2026-05-03T06:07:11.012Z)
Latitude
-0.00005°
Longitude
1.42474°
Altitude
758.069 km
Speed
7.531 km/s
True Right ascension
20h 57m 31s
True Declination
0° 00' 00"
Sunlit
Object was in daylight at epoch
Visualization orbit readout
Latitude
Unknown
Longitude
Unknown
Altitude
Unknown
Speed
Unknown
Apparent Right ascension
Unknown
Apparent Declination
Unknown
Sunlit
N/A
Visualization observer readout
Local Sidereal Time
22:40:37
Azimuth
Unknown
Elevation
Unknown
Doppler factor
Unknown
Orbital elements
Apogee altitude
1,018.414 km
Perigee altitude
705.401 km
Semi-major axis
7,240.045 km
Eccentricity
0.02162
Inclination
73.8371°
RAAN
314.3818°
Arg. of periapsis
313.1999°
True anomaly
46.9145°
Mean anomaly
45.1253°
Eccentric anomaly
46.01649°
Mean motion
3.52315 °/min
Orbital period
102.18 mins
BSTAR
0.00092628
Loading maneuver chart data...
Computing Atmospheric mass density...
Loading historical data...
Loading historical data...
Loading historical data...
Loading historical data...
Loading historical data...
Loading historical data...
Loading historical data...

Documentation

Showing up to 5 results
|